Regional Weather Roundup
Issued by NWS

Home | Current Version | Previous Version | Text Only | Print | Product List | Glossary Off
Versions: 1 2 3 4 5 6 7 8 9 10 11 12 13 14 15 16 17 18 19 20 21 22 23 24 25 26 27 28 29 30 31 32 33 34 35 36 37 38 39 40 41 42 43 44 45 46 47 48 49 50

000
ASUS43 KFSD 270402
RWRSD

WEATHER ROUNDUP FOR SOUTH DAKOTA
NATIONAL WEATHER SERVICE SIOUX FALLS SD
1100 PM CDT MON JUN 26 2017

NOTE: "FAIR" INDICATES FEW OR NO CLOUDS BELOW 12,000 FEET WITH NO
SIGNIFICANT WEATHER AND/OR OBSTRUCTIONS TO VISIBILITY.


SDZ001>005-009-010-012>017-270500-
NORTHWEST AND NORTH CENTRAL SOUTH DAKOTA

CITY           SKY/WX    TMP DP  RH WIND       PRES   REMARKS
BUFFALO          N/A     68  39  34 SE22G29   29.90F
FAITH            N/A     63  41  44 SE20G26   30.01F
MOBRIDGE       PTCLDY    63  38  39 SE16      30.03F
$$

SDZ012>016-024>037-041>051-057-063-072>074-270500-
SOUTHWEST AND SOUTH CENTRAL SOUTH DAKOTA

CITY           SKY/WX    TMP DP  RH WIND       PRES   REMARKS
RAPID CTY ARPT CLEAR     64  39  39 SE14      30.01S
PIERRE         PTCLDY    59  39  47 SE9       30.06S
CUSTER         CLEAR     61  35  37 SE6       30.14S
ELLSWORTH AFB  CLEAR     67  39  35 S18       30.00F
PHILIP         CLEAR     63  40  42 E12       30.03S
PINE RIDGE     CLEAR     67  41  38 SE13G21   30.05S
SPEARFISH      FAIR      68  41  37 E9        29.97F
WINNER         FAIR      58  39  49 SE10      30.10S
$$

SDZ004>011-016>023-039-040-270500-
NORTHEAST SOUTH DAKOTA

CITY           SKY/WX    TMP DP  RH WIND       PRES   REMARKS
ABERDEEN       CLEAR     52  42  69 S9        30.10S
WATERTOWN      CLEAR     54  41  61 S3        30.13S
BROOKINGS      CLEAR     59  39  47 CALM      30.14S
SISSETON         N/A     53  44  71 S7        30.10S
$$

SDZ017-020-022-023-036>040-048>070-270500-
SOUTHEAST SOUTH DAKOTA

CITY           SKY/WX    TMP DP  RH WIND       PRES   REMARKS
SIOUX FALLS    CLEAR     57  47  69 CALM      30.15R
HURON          CLEAR     57  43  59 SE7       30.12R
CHAMBERLAIN    CLEAR     57  45  64 E7        30.10F
MITCHELL       CLEAR     59  42  53 SE5       30.14R
YANKTON        CLEAR     61  42  49 E3        30.15
$$

ABBREVIATIONS USED IN REMARKS
   TC - TEMPERATURE IN CELSIUS
  WCI - WIND CHILL INDEX
   HX - HEAT INDEX
  VSB - VISIBILITY




USA.gov is the U.S. government's official web portal to all federal, state and local government web resources and services.